#timestamp,LO_Frequency,Hit,StdDev 
1505016015.2,286047001.0,N,1.2
1505016035.9,286046999.1,N,1.2
1505016055.7,286046998.1,N,1.2
1505016075.6,286046998.8,N,1.2
1505016095.4,286046998.8,N,1.2
1505016115.2,286046998.8,N,1.2
1505016135.1,286046997.0,N,1.3
1505016136.0,286046997.0,N,1.4
1505016155.8,286046999.5,N,1.4
1505016175.7,286046996.8,N,1.5
1505016195.5,286046999.2,N,1.4
1505016215.3,286046999.3,N,1.4
1505016235.2,286046996.6,N,1.5
1505016255.0,286046997.3,N,1.5
1505016255.9,286046997.3,N,1.5
1505016275.8,286046997.1,N,1.5
1505016295.6,286046996.9,N,1.5
1505016315.4,286046996.8,N,1.6
1505016335.3,286046998.8,N,1.5
1505016355.1,286046998.5,N,1.5
1505016375.8,286046999.0,N,1.4
1505016395.7,286046998.3,N,1.4
1505016415.5,286046998.2,N,1.4
1505016435.4,286046998.3,N,1.3
1505016455.2,286047000.7,N,1.4
1505016475.0,286047001.1,N,1.4
1505016475.9,286047001.1,N,1.4
1505016495.8,286047000.8,N,1.5
1505016515.6,286047000.6,N,1.5
1505016535.5,286046999.9,N,1.4
1505016555.3,286046998.5,N,1.3
1505016575.1,286682703.8,Y,0.0
1505016595.9,286047002.7,P,2.0
1505016615.7,286047000.2,N,1.7
1505016635.6,286047000.3,N,1.5
1505016655.4,286047000.4,N,1.3
1505016675.2,286047001.0,N,1.2
1505016695.1,286046998.1,N,1.4
1505016696.0,286046998.1,N,1.5
1505016715.8,286047000.3,N,1.4
1505016735.6,286047002.8,N,1.6
1505016755.5,286046999.7,N,1.5
1505016775.3,286047002.7,N,1.6
1505016795.2,286047002.0,N,1.6
1505016815.9,286047003.9,N,1.8
1505016835.7,286047000.2,N,1.7
1505016855.6,286046999.7,N,1.7
1505016875.4,286047000.0,N,1.6
1505016895.3,286046999.9,N,1.6
1505016915.1,286047000.4,N,1.6
1505016916.0,286047000.4,N,1.5
1505016935.8,286047002.5,N,1.5
1505016955.7,286047002.5,N,1.6
1505016975.5,286047002.6,N,1.6
1505016995.4,286047002.5,N,1.6
1505017015.2,286046999.8,N,1.6
1505017035.0,286047004.4,N,1.7
1505017035.9,286047004.4,N,1.8
1505017055.8,286047004.4,N,1.8
1505017075.6,286047004.4,N,1.9
1505017095.5,286047001.6,N,1.9
1505017115.3,286047002.8,N,1.8
1505017135.1,286047000.1,N,1.8
1505017155.9,286046999.9,N,1.8
1505017175.7,286047001.0,N,1.8
1505017195.6,286047001.0,N,1.8
1505017215.4,286047000.6,N,1.8
1505017235.2,286046999.8,N,1.7
1505017255.1,286046999.7,N,1.6
1505017256.0,286046999.7,N,1.7
1505017275.8,286047000.5,N,1.6
1505017295.7,286047002.4,N,1.6
1505017315.5,286046999.8,N,1.6
1505017335.3,286046999.9,N,1.7
1505017355.2,286047000.5,N,1.6
1505017375.0,286047002.6,N,1.6
1505017375.9,286047002.6,N,1.6
1505017395.8,286047001.5,N,1.6
1505017415.6,286047001.3,N,1.5
1505017435.4,286047001.6,N,1.5
1505017455.3,286047002.5,N,1.5
1505017475.1,286047001.6,N,1.5
1505017495.8,286047002.5,N,1.5
1505017515.7,286047001.9,N,1.5
1505017535.5,286047002.7,N,1.5
1505017555.4,286047003.7,N,1.5
1505017575.2,286047004.1,N,1.5
1505017595.0,286047003.5,N,1.4
1505017595.9,286047003.5,N,1.4
1505017615.8,286047003.7,N,1.4
1505017635.6,286047003.1,N,1.4
1505017655.5,286047001.7,N,1.4
1505017675.3,286047004.1,N,1.4
1505017695.1,286047003.7,N,1.4
1505017715.9,286047003.9,N,1.4
1505017735.7,286047003.9,N,1.5
1505017755.5,286047003.5,N,1.5
1505017775.4,286047003.1,N,1.4
1505017795.2,286047003.2,N,1.3
1505017815.1,286047003.9,N,1.2
1505017816.0,286047003.9,Y,0.0
1505017835.8,286046999.8,P,1.4
1505017855.7,286047002.6,N,1.3
1505017875.5,286047000.1,N,1.3
1505017895.3,286047001.3,N,1.2
1505017915.2,286047005.3,Y,0.0
1505017935.0,286047005.5,P,2.1
1505017935.9,286047005.5,N,2.0
1505017955.8,286047005.9,N,1.9
1505017975.6,286047003.8,N,1.7
1505017995.4,286047005.7,Y,0.0
1505018015.3,286047002.5,P,0.9
1505018035.1,286047002.7,N,0.8
1505018055.9,286047000.3,N,1.5
1505018075.7,286046998.4,N,2.1
1505018095.5,286047001.0,N,1.9
1505018115.4,286047000.7,N,1.8
1505018135.2,286047000.6,N,1.7
1505018155.0,286047000.1,N,1.7
1505018155.9,286047000.1,N,1.6
1505018175.8,286047003.9,N,1.7
1505018195.6,286047005.9,Y,0.0
1505018215.5,286047004.2,P,1.4
1505018235.3,286047002.7,N,1.2
1505018255.1,286047004.4,P,1.2
1505018275.9,286047001.7,N,1.3
1505018295.7,286047007.2,Y,0.0
1505018315.6,286047002.3,P,0.3
1505018335.4,286047003.2,P,0.4
1505018355.2,286047003.4,P,0.4
1505018375.1,286047003.0,Y,0.0
1505018376.0,286047003.0,P,0.0
1505018395.8,286047000.7,P,1.1
1505018415.7,286046998.5,N,1.9
1505018435.5,286046999.0,N,1.9
1505018455.3,286046998.8,N,1.9
1505018475.2,286046999.0,N,1.8
1505018495.0,286046997.0,N,2.0
1505018495.9,286046997.0,N,2.1
1505018515.7,286046999.3,N,2.0
1505018535.6,286047000.3,N,1.9
1505018555.4,286046999.4,N,1.8
1505018575.3,286046998.6,N,1.8
1505018595.1,286046998.4,N,1.7
1505018615.8,286046999.6,N,1.7
1505018635.7,286046997.9,N,1.7
1505018655.5,286046998.9,N,1.6
1505018675.4,286047001.3,N,1.6
1505018695.2,286047005.2,Y,0.0
1505018715.0,286047003.3,P,1.9
1505018715.9,286047003.3,N,1.8
1505018735.8,286046999.8,N,1.8
1505018755.6,286046998.5,N,2.0
1505018775.4,286046999.3,N,1.9
1505018795.3,286046999.6,N,1.8
1505018815.1,286046997.0,N,2.1
1505018835.9,286047000.0,N,1.9
1505018855.7,286047005.4,N,2.5
1505018875.5,286047003.8,N,2.5
1505018895.4,286047002.6,N,2.5
1505018915.2,286047001.1,N,2.4
1505018935.1,286047001.5,N,2.3
1505018936.0,286047001.5,N,2.2
1505018955.8,286047002.2,N,2.2
1505018975.6,286046999.0,N,2.1
1505018995.5,286046999.5,N,2.1
1505019015.3,286046999.6,N,2.1
1505019035.1,286047003.0,N,2.1
1505019055.9,286047008.8,Y,0.0
1505019075.7,286047006.6,P,2.8
1505019095.6,286047010.1,P,3.8
1505019115.4,286047009.0,N,3.5
1505019135.2,286047007.6,N,3.2
1505019155.1,286047006.6,N,2.9
1505019156.0,286047006.6,N,2.7
1505019175.8,286047003.0,N,2.8
1505019195.7,286047004.2,N,2.7
1505019215.5,286047002.0,N,2.9
1505019235.3,286047001.5,N,3.0
1505019255.2,286047002.5,N,3.0
1505019275.0,286047002.1,N,2.9
1505019275.9,286047002.1,N,2.9
1505019295.8,286047003.3,N,2.8
1505019315.6,286047003.2,N,2.8
1505019335.4,286047005.2,N,2.7
1505019355.3,286047008.0,N,2.7
1505019375.1,286047013.6,Y,0.0
1505019395.9,286047004.6,P,0.0
1505019415.7,286047003.3,P,0.6
1505019435.5,286047005.0,P,0.7
1505019455.4,286047003.3,Y,0.0
1505019475.2,286046999.9,P,2.2
1505019495.1,286047004.2,N,2.1
1505019496.0,286047004.2,N,1.9
1505019515.8,286047003.7,N,1.7
1505019535.6,286047001.8,N,1.7
1505019555.5,286047003.9,N,1.6
1505019575.3,286047005.6,Y,0.0
1505019595.1,286047000.3,P,1.4
